Weather History for Tekamah, NE

Change the Weather History Date:

Thursday, December 19, 2013

  Actual Average Record
Temperature  
Mean Temperature 24 °F -  
Max Temperature 30 °F 34 °F 59 °F (1976)
Min Temperature 18 °F 13 °F -19 °F (1983)
Degree Days  
Heating Degree Days 40    
Moisture  
Dew Point 19 °F    
Average Humidity 75    
Maximum Humidity 85    
Minimum Humidity 59    
Precipitation  
Precipitation 0.00 in - - ()
Sea Level Pressure  
Sea Level Pressure 29.87 in    
Wind  
Wind Speed 16 mph (North)    
Max Wind Speed 24 mph    
Max Gust Speed 31 mph    
Visibility 8 miles    
Events Rain    
Averages and records for this station are not official NWS values.
T = Trace of Precipitation, MM = Missing Value Source: NWS Daily Summary

Daily Weather History Graph

Daily Weather History Graph

Search for Another Location

Airport:

Trip Planner

Search our weather history database for the weather conditions in past years. The results will help you decide how hot, cold, wet, or windy it might be!

Date:

Astronomy

Dec. 19, 2013 Rise Set
Actual Time 7:47 AM CST 4:56 PM CST
Civil Twilight 7:16 AM CST 5:27 PM CST
Nautical Twilight 6:40 AM CST 6:03 PM CST
Astronomical Twilight 6:07 AM CST 6:36 PM CST
Moon 7:24 PM CST (12/19) 9:05 AM CST (12/19)
Length of Visible Light 10h 11m
Length of Day
9h 08m
Waning Gibbous, 95% of the Moon is Illuminated
Dec 19
Waning Gibbous
Dec 25
Last Quarter
Jan 1
New
Jan 7
First Quarter
Jan 15
Full

Hourly Weather History & Observations

Time (CST) Temp. Windchill Dew Point Humidity Pressure Visibility Wind Dir Wind Speed Gust Speed Precip Events Conditions
12:54 AM 24.1 °F 15.2 °F 19.0 °F 81% 29.78 in 10.0 mi NNW 8.1 mph - N/A   Clear
1:54 AM 27.0 °F 16.1 °F 21.9 °F 81% 29.77 in 10.0 mi North 12.7 mph - N/A   Clear
2:54 AM 30.0 °F 20.5 °F 24.1 °F 79% 29.78 in 10.0 mi North 11.5 mph - N/A   Clear
3:54 AM 28.9 °F 19.2 °F 24.1 °F 82% 29.81 in 10.0 mi North 11.5 mph - N/A   Clear
4:54 AM 30.9 °F 20.2 °F 25.0 °F 79% 29.82 in 10.0 mi North 15.0 mph - N/A   Clear
5:54 AM 30.0 °F 19.5 °F 24.1 °F 79% 29.85 in 10.0 mi North 13.8 mph - N/A   Clear
6:54 AM 28.9 °F 17.3 °F 21.9 °F 75% 29.85 in 10.0 mi North 16.1 mph - N/A   Clear
7:54 AM 27.0 °F 13.9 °F 19.9 °F 75% 29.88 in 10.0 mi North 18.4 mph - N/A   Clear
8:54 AM 26.1 °F 13.6 °F 19.0 °F 75% 29.90 in 10.0 mi North 16.1 mph - N/A   Clear
9:54 AM 27.0 °F 13.9 °F 19.0 °F 72% 29.89 in 10.0 mi NNE 18.4 mph - N/A   Clear
10:54 AM 30.0 °F 20.0 °F 19.9 °F 66% 29.91 in 10.0 mi NNE 12.7 mph - N/A   Clear
11:54 AM 30.0 °F 17.9 °F 19.0 °F 64% 29.87 in 10.0 mi NNE 18.4 mph 26.5 mph N/A   Clear
12:54 PM 30.0 °F 16.6 °F 18.0 °F 61% 29.84 in 10.0 mi NNE 23.0 mph 28.8 mph N/A   Clear
1:54 PM 30.9 °F 18.7 °F 18.0 °F 59% 29.83 in 10.0 mi North 19.6 mph - N/A   Clear
2:54 PM 30.0 °F 17.5 °F 19.0 °F 64% 29.81 in 10.0 mi NNE 19.6 mph - N/A   Partly Cloudy
3:07 PM 30.0 °F 18.3 °F 19.0 °F 64% 29.79 in 10.0 mi NNE 17.3 mph - N/A   Mostly Cloudy
3:54 PM 28.9 °F 16.9 °F 19.0 °F 67% 29.84 in 10.0 mi NNE 17.3 mph - N/A   Overcast
4:54 PM 28.0 °F 15.7 °F 18.0 °F 66% 29.85 in 10.0 mi North 17.3 mph - N/A   Overcast
5:54 PM 25.0 °F 10.2 °F 16.0 °F 69% 29.88 in 10.0 mi North 21.9 mph - N/A   Overcast
6:54 PM 21.9 °F 5.8 °F 16.0 °F 78% 29.89 in 6.0 mi North 23.0 mph 27.6 mph 0.00 in   Haze
7:54 PM 21.0 °F 5.4 °F 16.0 °F 81% 29.92 in 6.0 mi North 20.7 mph - N/A   Haze
8:12 PM 19.9 °F 3.5 °F 15.1 °F 81% 29.90 in 5.0 mi North 21.9 mph - 0.00 in Rain Light Freezing Rain
8:54 PM 19.9 °F 2.8 °F 15.1 °F 81% 29.93 in 5.0 mi North 24.2 mph - 0.00 in Rain Light Freezing Rain
9:10 PM 19.9 °F 3.9 °F 16.0 °F 85% 29.90 in 5.0 mi North 20.7 mph 27.6 mph 0.00 in Rain Light Freezing Rain
9:38 PM 19.9 °F 3.5 °F 16.0 °F 85% 29.91 in 5.0 mi North 21.9 mph - 0.00 in   Overcast
9:54 PM 19.9 °F 3.5 °F 16.0 °F 85% 29.94 in 5.0 mi North 21.9 mph - 0.00 in   Overcast
10:54 PM 19.0 °F 3.2 °F 15.1 °F 85% 29.96 in 5.0 mi North 19.6 mph - N/A   Overcast
11:54 PM 18.0 °F 0.2 °F 14.0 °F 84% 29.97 in 5.0 mi North 24.2 mph 31.1 mph N/A   Overcast